Time,TemperatureF,DewpointF,PressureIn,WindDirection,WindDirectionDegrees,WindSpeedMPH,WindSpeedGustMPH,Humidity,HourlyPrecipIn,Conditions,Clouds,dailyrainin,SolarRadiationWatts/m^2,SoftwareType,DateUTC
2013-06-30 00:02:00,69.0,66.0,-100.00,SW,235,2.0,7.0,90,0.00,,,0.00,0.000000,,2013-06-30 04:02:00,
2013-06-30 00:12:00,69.0,66.0,-100.00,SW,235,2.0,7.0,90,0.00,,,0.00,0.000000,,2013-06-30 04:12:00,
2013-06-30 00:22:00,69.0,66.0,-100.00,SW,235,2.0,7.0,90,0.00,,,0.00,0.000000,,2013-06-30 04:22:00,
2013-06-30 00:53:00,68.0,66.0,-100.00,WSW,252,1.0,4.0,93,0.00,,,0.00,0.000000,,2013-06-30 04:53:00,
2013-06-30 01:02:00,68.0,66.0,-100.00,WSW,252,1.0,4.0,93,0.00,,,0.00,0.000000,,2013-06-30 05:02:00,
2013-06-30 01:12:00,68.0,66.0,-100.00,WSW,252,1.0,4.0,93,0.00,,,0.00,0.000000,,2013-06-30 05:12:00,
2013-06-30 01:22:00,68.0,66.0,-100.00,WSW,252,1.0,4.0,93,0.00,,,0.00,0.000000,,2013-06-30 05:22:00,
2013-06-30 01:53:00,68.0,67.0,-100.00,South,169,2.0,4.0,95,0.00,,,0.00,0.000000,,2013-06-30 05:53:00,
2013-06-30 02:02:00,68.0,67.0,-100.00,South,169,2.0,4.0,95,0.00,,,0.00,0.000000,,2013-06-30 06:02:00,
2013-06-30 02:12:00,68.0,67.0,-100.00,South,169,2.0,4.0,95,0.00,,,0.00,0.000000,,2013-06-30 06:12:00,
2013-06-30 02:23:00,68.0,67.0,-100.00,South,169,2.0,4.0,95,0.00,,,0.00,0.000000,,2013-06-30 06:23:00,
2013-06-30 02:53:00,67.0,66.0,-100.00,NW,309,1.0,5.0,96,0.00,,,0.00,0.000000,,2013-06-30 06:53:00,
2013-06-30 03:02:00,67.0,66.0,-100.00,NW,309,1.0,5.0,96,0.00,,,0.00,0.000000,,2013-06-30 07:02:00,
2013-06-30 03:12:00,67.0,66.0,-100.00,NW,309,1.0,5.0,96,0.00,,,0.00,0.000000,,2013-06-30 07:12:00,
2013-06-30 03:22:00,67.0,66.0,-100.00,NW,309,1.0,5.0,96,0.00,,,0.00,0.000000,,2013-06-30 07:22:00,
2013-06-30 03:53:00,61.0,60.0,-100.00,ESE,121,2.0,3.0,97,0.00,,,0.00,0.000000,,2013-06-30 07:53:00,
2013-06-30 04:02:00,61.0,60.0,-100.00,ESE,121,2.0,3.0,97,0.00,,,0.00,0.000000,,2013-06-30 08:02:00,
2013-06-30 04:12:00,61.0,60.0,-100.00,ESE,121,2.0,3.0,97,0.00,,,0.00,0.000000,,2013-06-30 08:12:00,
2013-06-30 04:22:00,61.0,60.0,-100.00,ESE,121,2.0,3.0,97,0.00,,,0.00,0.000000,,2013-06-30 08:22:00,
2013-06-30 04:53:00,67.0,67.0,-100.00,WSW,247,2.0,7.0,99,0.00,,,0.00,0.000000,,2013-06-30 08:53:00,
2013-06-30 05:02:00,67.0,67.0,-100.00,WSW,247,2.0,7.0,99,0.00,,,0.00,0.000000,,2013-06-30 09:02:00,
2013-06-30 05:12:00,67.0,67.0,-100.00,WSW,247,2.0,7.0,99,0.00,,,0.00,0.000000,,2013-06-30 09:12:00,
2013-06-30 05:23:00,67.0,67.0,-100.00,WSW,247,2.0,7.0,99,0.00,,,0.00,0.000000,,2013-06-30 09:23:00,
2013-06-30 05:53:00,67.0,66.0,-100.00,WSW,251,2.0,7.0,98,0.00,,,0.00,2.000000,,2013-06-30 09:53:00,
2013-06-30 06:02:00,67.0,66.0,-100.00,WSW,251,2.0,7.0,98,0.00,,,0.00,2.000000,,2013-06-30 10:02:00,
2013-06-30 06:11:00,67.0,66.0,-100.00,WSW,251,2.0,7.0,98,0.00,,,0.00,2.000000,,2013-06-30 10:11:00,
2013-06-30 06:22:00,67.0,66.0,-100.00,WSW,251,2.0,7.0,98,0.00,,,0.00,2.000000,,2013-06-30 10:22:00,
2013-06-30 06:53:00,67.0,66.0,-100.00,South,185,2.0,6.0,97,0.00,,,0.00,31.000000,,2013-06-30 10:53:00,
2013-06-30 07:02:00,67.0,66.0,-100.00,South,185,2.0,6.0,97,0.00,,,0.00,31.000000,,2013-06-30 11:02:00,
2013-06-30 07:11:00,67.0,66.0,-100.00,South,185,2.0,6.0,97,0.00,,,0.00,31.000000,,2013-06-30 11:11:00,
2013-06-30 07:22:00,67.0,66.0,-100.00,South,185,2.0,6.0,97,0.00,,,0.00,31.000000,,2013-06-30 11:22:00,
2013-06-30 08:24:00,72.0,69.0,-100.00,WSW,254,4.0,10.0,91,0.00,,,0.00,129.000000,,2013-06-30 12:24:00,
2013-06-30 10:52:00,75.0,65.0,-100.00,ESE,116,5.0,9.0,72,0.00,,,0.00,681.000000,,2013-06-30 14:52:00,
2013-06-30 11:02:00,75.0,65.0,-100.00,ESE,116,5.0,9.0,72,0.00,,,0.00,681.000000,,2013-06-30 15:02:00,
2013-06-30 11:12:00,75.0,65.0,-100.00,ESE,116,5.0,9.0,72,0.00,,,0.00,681.000000,,2013-06-30 15:12:00,
2013-06-30 11:23:00,75.0,65.0,-100.00,ESE,116,5.0,9.0,72,0.00,,,0.00,681.000000,,2013-06-30 15:23:00,
2013-06-30 11:53:00,74.0,66.0,-100.00,SE,137,5.0,8.0,75,0.00,,,0.00,798.000000,,2013-06-30 15:53:00,
2013-06-30 12:01:00,74.0,66.0,-100.00,SE,137,5.0,8.0,75,0.00,,,0.00,798.000000,,2013-06-30 16:01:00,
2013-06-30 12:11:00,74.0,66.0,-100.00,SE,137,5.0,8.0,75,0.00,,,0.00,798.000000,,2013-06-30 16:11:00,
2013-06-30 12:21:00,74.0,66.0,-100.00,SE,137,5.0,8.0,75,0.00,,,0.00,798.000000,,2013-06-30 16:21:00,
2013-06-30 12:53:00,76.0,67.0,-100.00,SSE,164,4.0,15.0,75,0.00,,,0.00,834.000000,,2013-06-30 16:53:00,
2013-06-30 13:02:00,76.0,67.0,-100.00,SSE,164,4.0,15.0,75,0.00,,,0.00,834.000000,,2013-06-30 17:02:00,
2013-06-30 13:12:00,76.0,67.0,-100.00,SSE,164,4.0,15.0,75,0.00,,,0.00,834.000000,,2013-06-30 17:12:00,
2013-06-30 13:23:00,76.0,67.0,-100.00,SSE,164,4.0,15.0,75,0.00,,,0.00,834.000000,,2013-06-30 17:23:00,
2013-06-30 13:53:00,79.0,70.0,-100.00,SSE,151,4.0,9.0,73,0.00,,,0.00,816.000000,,2013-06-30 17:53:00,
2013-06-30 14:02:00,79.0,70.0,-100.00,SSE,151,4.0,9.0,73,0.00,,,0.00,816.000000,,2013-06-30 18:02:00,
2013-06-30 14:12:00,79.0,70.0,-100.00,SSE,151,4.0,9.0,73,0.00,,,0.00,816.000000,,2013-06-30 18:12:00,
2013-06-30 14:22:00,79.0,70.0,-100.00,SSE,151,4.0,9.0,73,0.00,,,0.00,816.000000,,2013-06-30 18:22:00,
2013-06-30 14:53:00,76.0,69.0,-100.00,East,101,3.0,10.0,79,0.00,,,0.00,653.000000,,2013-06-30 18:53:00,
2013-06-30 15:01:00,76.0,69.0,-100.00,East,101,3.0,10.0,79,0.00,,,0.00,653.000000,,2013-06-30 19:01:00,
2013-06-30 15:12:00,76.0,69.0,-100.00,East,101,3.0,10.0,79,0.00,,,0.00,653.000000,,2013-06-30 19:12:00,
2013-06-30 15:22:00,76.0,69.0,-100.00,East,101,3.0,10.0,79,0.00,,,0.00,653.000000,,2013-06-30 19:22:00,
2013-06-30 15:53:00,75.0,68.0,-100.00,ESE,115,3.0,9.0,78,0.00,,,0.00,507.000000,,2013-06-30 19:53:00,
2013-06-30 16:02:00,75.0,68.0,-100.00,ESE,115,3.0,9.0,78,0.00,,,0.00,507.000000,,2013-06-30 20:02:00,
2013-06-30 16:12:00,75.0,68.0,-100.00,ESE,115,3.0,9.0,78,0.00,,,0.00,507.000000,,2013-06-30 20:12:00,
2013-06-30 16:22:00,75.0,68.0,-100.00,ESE,115,3.0,9.0,78,0.00,,,0.00,507.000000,,2013-06-30 20:22:00,
2013-06-30 16:52:00,73.0,66.0,-100.00,SE,144,4.0,7.0,80,0.00,,,0.00,407.000000,,2013-06-30 20:52:00,
2013-06-30 17:01:00,73.0,66.0,-100.00,SE,144,4.0,7.0,80,0.00,,,0.00,407.000000,,2013-06-30 21:01:00,
2013-06-30 17:11:00,73.0,66.0,-100.00,SE,144,4.0,7.0,80,0.00,,,0.00,407.000000,,2013-06-30 21:11:00,
2013-06-30 17:22:00,73.0,66.0,-100.00,SE,144,4.0,7.0,80,0.00,,,0.00,407.000000,,2013-06-30 21:22:00,
2013-06-30 17:53:00,79.0,70.0,-100.00,South,170,4.0,9.0,74,0.00,,,0.00,222.000000,,2013-06-30 21:53:00,
2013-06-30 18:01:00,79.0,70.0,-100.00,South,170,4.0,9.0,74,0.00,,,0.00,222.000000,,2013-06-30 22:01:00,
2013-06-30 18:11:00,79.0,70.0,-100.00,South,170,4.0,9.0,74,0.00,,,0.00,222.000000,,2013-06-30 22:11:00,
2013-06-30 18:53:00,79.0,69.0,-100.00,SSE,155,4.0,11.0,72,0.00,,,0.00,242.000000,,2013-06-30 22:53:00,
2013-06-30 19:02:00,79.0,69.0,-100.00,SSE,155,4.0,11.0,72,0.00,,,0.00,242.000000,,2013-06-30 23:02:00,
2013-06-30 19:11:00,79.0,69.0,-100.00,SSE,155,4.0,11.0,72,0.00,,,0.00,242.000000,,2013-06-30 23:11:00,
2013-06-30 19:53:00,76.0,69.0,-100.00,SSW,202,3.0,10.0,80,0.00,,,0.00,73.000000,,2013-06-30 23:53:00,
2013-06-30 20:01:00,76.0,69.0,-100.00,SSW,202,3.0,10.0,80,0.00,,,0.00,73.000000,,2013-07-01 00:01:00,
2013-06-30 20:11:00,76.0,69.0,-100.00,SSW,202,3.0,10.0,80,0.00,,,0.00,73.000000,,2013-07-01 00:11:00,
2013-06-30 20:22:00,76.0,69.0,-100.00,SSW,202,3.0,10.0,80,0.00,,,0.00,73.000000,,2013-07-01 00:22:00,
2013-06-30 20:52:00,70.0,67.0,-100.00,South,169,2.0,6.0,89,0.00,,,0.00,12.000000,,2013-07-01 00:52:00,
2013-06-30 21:01:00,70.0,67.0,-100.00,South,169,2.0,6.0,89,0.00,,,0.00,12.000000,,2013-07-01 01:01:00,
2013-06-30 21:12:00,70.0,67.0,-100.00,South,169,2.0,6.0,89,0.00,,,0.00,12.000000,,2013-07-01 01:12:00,
2013-06-30 21:22:00,70.0,67.0,-100.00,South,169,2.0,6.0,89,0.00,,,0.00,12.000000,,2013-07-01 01:22:00,
2013-06-30 21:52:00,66.0,64.0,-100.00,NE,35,2.0,5.0,94,0.00,,,0.00,1.000000,,2013-07-01 01:52:00,
2013-06-30 22:02:00,66.0,64.0,-100.00,NE,35,2.0,5.0,94,0.00,,,0.00,1.000000,,2013-07-01 02:02:00,
2013-06-30 22:12:00,66.0,64.0,-100.00,NE,35,2.0,5.0,94,0.00,,,0.00,1.000000,,2013-07-01 02:12:00,
2013-06-30 22:22:00,66.0,64.0,-100.00,NE,35,2.0,5.0,94,0.00,,,0.00,1.000000,,2013-07-01 02:22:00,
2013-06-30 22:54:00,66.0,65.0,-100.00,SSE,147,1.0,3.0,95,0.00,,,0.00,0.000000,,2013-07-01 02:54:00,
2013-06-30 23:01:00,66.0,65.0,-100.00,SSE,147,1.0,3.0,95,0.00,,,0.00,0.000000,,2013-07-01 03:01:00,
2013-06-30 23:12:00,66.0,65.0,-100.00,SSE,147,1.0,3.0,95,0.00,,,0.00,0.000000,,2013-07-01 03:12:00,
2013-06-30 23:23:00,66.0,65.0,-100.00,SSE,147,1.0,3.0,95,0.00,,,0.00,0.000000,,2013-07-01 03:23:00,
2013-06-30 23:52:00,67.0,66.0,-100.00,SE,127,1.0,5.0,96,0.00,,,0.00,0.000000,,2013-07-01 03:52:00,